Weather History for Budapest Ferihegy, Hungary

Change the Weather History Date:

Thursday, November 21, 2013

  Actual Average Record
Temperature  
Mean Temperature 40 °F -  
Max Temperature 46 °F 38 °F 62 °F (2002)
Min Temperature 33 °F 26 °F 14 °F (1999)
Degree Days  
Heating Degree Days 26    
Moisture  
Dew Point 42 °F    
Average Humidity 99    
Maximum Humidity 100    
Minimum Humidity 93    
Precipitation  
Precipitation 0.00 in - - ()
Sea Level Pressure  
Sea Level Pressure 29.63 in    
Wind  
Wind Speed 6 mph ()    
Max Wind Speed 13 mph    
Max Gust Speed -    
Visibility 3.9 miles    
Events Fog , Rain    
Averages and records for this station are not official NWS values.
T = Trace of Precipitation, MM = Missing Value Source: Averaged Metar Reports

Daily Weather History Graph

Daily Weather History Graph

Search for Another Location

Airport:

Trip Planner

Search our weather history database for the weather conditions in past years. The results will help you decide how hot, cold, wet, or windy it might be!

Date:

Astronomy

Nov. 21, 2013 Rise Set
Actual Time 6:56 AM CET 4:01 PM CET
Civil Twilight 6:22 AM CET 4:35 PM CET
Nautical Twilight 5:44 AM CET 5:12 PM CET
Astronomical Twilight 5:07 AM CET 5:49 PM CET
Moon 7:22 PM CET (11/21) 9:49 AM CET (11/21)
Length of Visible Light 10h 12m
Length of Day
9h 04m
Waning Gibbous, 87% of the Moon is Illuminated
Nov 21
Waning Gibbous
Nov 25
Last Quarter
Dec 3
New
Dec 9
First Quarter
Dec 17
Full

Hourly Weather History & Observations

Time (CET) Temp. Windchill Dew Point Humidity Pressure Visibility Wind Dir Wind Speed Gust Speed Precip Events Conditions
12:00 AM 46.4 °F 41.5 °F 46.4 °F 100% 29.62 in 6.2 mi WNW 10.4 mph - N/A   Mostly Cloudy
12:30 AM 44.6 °F 41.4 °F 44.6 °F 100% 29.62 in 6.2 mi West 5.8 mph - N/A   Partly Cloudy
1:00 AM 44.6 °F 42.2 °F 44.6 °F 100% 29.62 in 6.2 mi WSW 4.6 mph - N/A   Partly Cloudy
1:30 AM 41.0 °F 37.1 °F 41.0 °F 100% 29.65 in - SSW 5.8 mph - N/A   Clear
2:00 AM 41.0 °F 35.8 °F 41.0 °F 100% 29.65 in - SSW 8.1 mph - N/A   Clear
2:30 AM 41.0 °F 35.8 °F 41.0 °F 100% 29.65 in - SW 8.1 mph - N/A   Clear
3:00 AM 41.0 °F 38.0 °F 41.0 °F 100% 29.65 in - SSW 4.6 mph - N/A   Clear
3:30 AM 37.4 °F - 37.4 °F 100% 29.65 in - Calm Calm - N/A   Clear
4:00 AM 35.6 °F 31.7 °F 35.6 °F 100% 29.65 in - East 4.6 mph - N/A   Clear
4:30 AM 37.4 °F 32.8 °F 37.4 °F 100% 29.68 in 5.0 mi South 5.8 mph - N/A Fog Fog
5:00 AM 37.4 °F 34.9 °F 37.4 °F 100% 29.65 in 5.0 mi Variable 3.5 mph - N/A Fog Shallow Fog
5:30 AM 33.8 °F - 33.8 °F 100% 29.65 in 5.0 mi Variable 2.3 mph - N/A Fog Shallow Fog
6:00 AM 33.8 °F 30.8 °F 33.8 °F 100% 29.65 in 3.7 mi Variable 3.5 mph - N/A Fog Patches of Fog
6:30 AM 33.8 °F - 33.8 °F 100% 29.68 in 3.1 mi Variable 1.2 mph - N/A   Mostly Cloudy
7:00 AM 33.8 °F 29.6 °F 33.8 °F 100% 29.68 in 0.9 mi East 4.6 mph - N/A Fog Patches of Fog
7:30 AM 35.6 °F 32.8 °F 35.6 °F 100% 29.68 in 0.9 mi Variable 3.5 mph - N/A Fog Patches of Fog
8:00 AM 37.4 °F 33.8 °F 37.4 °F 100% 29.68 in 2.5 mi East 4.6 mph - N/A Fog Patches of Fog
8:30 AM 39.2 °F - 39.2 °F 100% 29.68 in 3.1 mi Variable 2.3 mph - N/A   Partly Cloudy
9:00 AM 39.2 °F 37.0 °F 39.2 °F 100% 29.68 in 3.7 mi Variable 3.5 mph - N/A   Unknown
9:30 AM 41.0 °F - 41.0 °F 100% 29.68 in 3.7 mi Variable 1.2 mph - N/A   Unknown
10:00 AM 42.8 °F - 42.8 °F 100% 29.65 in 5.0 mi Calm Calm - N/A   Unknown
10:30 AM 44.6 °F 40.7 °F 44.6 °F 100% 29.65 in 5.0 mi East 6.9 mph - N/A   Mostly Cloudy
11:00 AM 42.8 °F 37.0 °F 42.8 °F 100% 29.65 in 6.2 mi ENE 10.4 mph - N/A   Mostly Cloudy
11:30 AM 42.8 °F 38.6 °F 42.8 °F 100% 29.65 in 6.2 mi ENE 6.9 mph - N/A   Mostly Cloudy
12:00 PM 42.8 °F 39.3 °F 42.8 °F 100% 29.65 in 6.2 mi East 5.8 mph - N/A   Mostly Cloudy
12:30 PM 44.6 °F 40.7 °F 44.6 °F 100% 29.62 in 6.2 mi NNE 6.9 mph - N/A   Mostly Cloudy
1:00 PM 44.6 °F 41.4 °F 42.8 °F 93% 29.62 in 4.3 mi NNE 5.8 mph - N/A   Mostly Cloudy
1:30 PM 42.8 °F 37.5 °F 41.0 °F 93% 29.62 in 5.0 mi NE 9.2 mph - N/A   Mostly Cloudy
2:00 PM 44.6 °F 40.2 °F 42.8 °F 93% 29.59 in 2.5 mi ENE 8.1 mph - N/A   Overcast
2:30 PM 44.6 °F 39.2 °F 42.8 °F 93% 29.59 in 2.5 mi ENE 10.4 mph - N/A Rain Light Rain
3:00 PM 44.6 °F 40.2 °F 42.8 °F 93% 29.59 in 2.2 mi NE 8.1 mph - N/A Rain Light Rain
3:30 PM 44.6 °F 38.8 °F 44.6 °F 100% 29.59 in 2.5 mi East 11.5 mph - N/A Rain Light Rain
4:00 PM 44.6 °F 39.7 °F 44.6 °F 100% 29.59 in 2.5 mi East 9.2 mph - N/A Rain Light Rain
4:30 PM 44.6 °F 39.7 °F 44.6 °F 100% 29.59 in 3.1 mi ENE 9.2 mph - N/A Rain Light Rain
5:00 PM 46.4 °F 41.1 °F 44.6 °F 93% 29.59 in 4.3 mi ENE 11.5 mph - N/A Rain Light Rain
5:30 PM 46.4 °F 40.7 °F 44.6 °F 93% 29.59 in 5.0 mi East 12.7 mph - N/A Rain Light Rain
6:00 PM 46.4 °F 40.7 °F 44.6 °F 93% 29.59 in 5.0 mi East 12.7 mph - N/A   Overcast
6:30 PM 46.4 °F 41.1 °F 44.6 °F 93% 29.59 in 5.0 mi East 11.5 mph - N/A   Mostly Cloudy
7:00 PM 46.4 °F 40.7 °F 46.4 °F 100% 29.59 in 3.7 mi East 12.7 mph - N/A   Mostly Cloudy
7:30 PM 46.4 °F 41.5 °F 46.4 °F 100% 29.59 in 3.7 mi ESE 10.4 mph - N/A   Mostly Cloudy
8:00 PM 46.4 °F 41.1 °F 46.4 °F 100% 29.59 in 2.2 mi ESE 11.5 mph - N/A   Mostly Cloudy
8:30 PM 46.4 °F 40.7 °F 46.4 °F 100% 29.59 in 2.2 mi East 12.7 mph - N/A   Mostly Cloudy
9:00 PM 46.4 °F 43.5 °F 46.4 °F 100% 29.62 in - ESE 5.8 mph - N/A   Mostly Cloudy
9:30 PM 46.4 °F 44.3 °F 46.4 °F 100% 29.62 in - East 4.6 mph - N/A   Mostly Cloudy
10:00 PM 46.4 °F - 46.4 °F 100% 29.62 in - Variable 2.3 mph - N/A   Mostly Cloudy
10:30 PM 46.4 °F 45.2 °F 46.4 °F 100% 29.62 in - Variable 3.5 mph - N/A   Mostly Cloudy
11:00 PM 46.4 °F 43.5 °F 46.4 °F 100% 29.62 in 1.9 mi East 5.8 mph - N/A   Overcast
11:30 PM 46.4 °F 43.5 °F 46.4 °F 100% 29.62 in 1.9 mi SE 5.8 mph - N/A   Overcast